Weather History for Ft Pierce, FL

Change the Weather History Date:

Thursday, June 13, 2013

  Actual Average Record
Temperature  
Mean Temperature 80 °F -  
Max Temperature 91 °F 88 °F 97 °F (2011)
Min Temperature 69 °F 71 °F 32 °F (1997)
Cooling Degree Days 14    
Growing Degree Days 30 (Base 50)    
Moisture  
Dew Point 70 °F    
Average Humidity 80    
Maximum Humidity 100    
Minimum Humidity 48    
Precipitation  
Precipitation 0.00 in - - ()
Sea Level Pressure  
Sea Level Pressure 30.00 in    
Wind  
Wind Speed 2 mph (SSW)    
Max Wind Speed 13 mph    
Max Gust Speed 20 mph    
Visibility 8 miles    
Events      
Averages and records for this station are not official NWS values.
T = Trace of Precipitation, MM = Missing Value Source: NWS Daily Summary

Daily Weather History Graph

Daily Weather History Graph

Search for Another Location

Airport:

Trip Planner

Search our weather history database for the weather conditions in past years. The results will help you decide how hot, cold, wet, or windy it might be!

Date:

Astronomy

Jun. 13, 2013 Rise Set
Actual Time 6:25 AM EDT 8:17 PM EDT
Civil Twilight 5:59 AM EDT 8:44 PM EDT
Nautical Twilight 5:27 AM EDT 9:16 PM EDT
Astronomical Twilight 4:53 AM EDT 9:50 PM EDT
Moon 10:41 AM EDT (6/13) 11:45 PM EDT (6/13)
Length of Visible Light 14h 44m
Length of Day
13h 51m
Waxing Crescent, 21% of the Moon is Illuminated
Jun 13
Waxing Crescent
Jun 16
First Quarter
Jun 23
Full
Jun 30
Last Quarter
Jul 8
New

Hourly Weather History & Observations

Time (EDT) Temp. Heat Index Dew Point Humidity Pressure Visibility Wind Dir Wind Speed Gust Speed Precip Events Conditions
12:53 AM 71.1 °F - 70.0 °F 96% 30.05 in 10.0 mi Calm Calm - N/A   Clear
1:53 AM 70.0 °F - 69.1 °F 97% 30.03 in 10.0 mi Calm Calm - N/A   Clear
2:23 AM 69.8 °F - 69.8 °F 100% 30.02 in 1.8 mi Calm Calm - N/A   Clear
2:31 AM 69.8 °F - 69.8 °F 100% 30.02 in 3.0 mi Calm Calm - N/A   Clear
2:53 AM 70.0 °F - 69.1 °F 97% 30.02 in 10.0 mi Calm Calm - N/A   Clear
3:53 AM 70.0 °F - 70.0 °F 100% 30.02 in 10.0 mi Calm Calm - N/A   Clear
4:19 AM 69.8 °F - 69.8 °F 100% 30.01 in 1.8 mi WNW 3.5 mph - N/A   Clear
4:26 AM 69.8 °F - 69.8 °F 100% 30.01 in 1.5 mi Calm Calm - N/A   Partly Cloudy
4:29 AM 69.8 °F - 69.8 °F 100% 30.01 in 3.0 mi Calm Calm - N/A   Clear
4:53 AM 69.1 °F - 69.1 °F 100% 30.01 in 9.0 mi SW 3.5 mph - N/A   Clear
5:53 AM 70.0 °F - 70.0 °F 100% 30.01 in 8.0 mi Calm Calm - N/A   Clear
6:53 AM 70.0 °F - 70.0 °F 100% 30.01 in 10.0 mi Calm Calm - N/A   Clear
7:53 AM 71.1 °F - 71.1 °F 100% 30.03 in 8.0 mi Calm Calm - N/A   Clear
8:53 AM 75.0 °F - 72.0 °F 90% 30.05 in 10.0 mi SSW 3.5 mph - N/A   Clear
9:53 AM 81.0 °F 84.4 °F 70.0 °F 69% 30.06 in 10.0 mi West 6.9 mph - N/A   Clear
10:53 AM 84.0 °F 86.3 °F 66.0 °F 55% 30.05 in 10.0 mi SW 4.6 mph - N/A   Clear
11:53 AM 87.1 °F 89.9 °F 66.9 °F 51% 30.05 in 10.0 mi Variable 5.8 mph - N/A   Partly Cloudy
12:53 PM 88.0 °F 91.4 °F 68.0 °F 51% 30.04 in 10.0 mi SSE 3.5 mph - N/A   Clear
1:53 PM 90.0 °F 93.6 °F 68.0 °F 48% 30.02 in 10.0 mi Calm Calm - N/A   Mostly Cloudy
2:53 PM 89.1 °F 98.0 °F 73.9 °F 61% 29.99 in 10.0 mi ESE 12.7 mph - N/A   Clear
3:53 PM 89.1 °F 97.0 °F 73.0 °F 59% 29.95 in 10.0 mi SSE 10.4 mph - N/A   Clear
4:53 PM 88.0 °F 92.9 °F 70.0 °F 55% 29.95 in 10.0 mi South 11.5 mph 19.6 mph N/A   Partly Cloudy
5:53 PM 86.0 °F 91.5 °F 71.1 °F 61% 29.94 in 10.0 mi SSW 11.5 mph - N/A   Mostly Cloudy
6:53 PM 82.9 °F 88.0 °F 72.0 °F 69% 29.94 in 10.0 mi SW 6.9 mph - N/A   Clear
7:53 PM 82.0 °F 86.3 °F 71.1 °F 69% 29.94 in 10.0 mi SSW 4.6 mph - N/A   Clear
8:53 PM 80.1 °F 83.6 °F 71.1 °F 74% 29.94 in 10.0 mi SSW 5.8 mph - N/A   Clear
9:53 PM 79.0 °F - 70.0 °F 74% 29.95 in 10.0 mi SSW 5.8 mph - N/A   Clear
10:53 PM 77.0 °F - 70.0 °F 79% 29.96 in 10.0 mi SSW 3.5 mph - N/A   Clear
11:53 PM 75.9 °F - 69.1 °F 79% 29.97 in 10.0 mi Calm Calm - N/A   Clear